This demonstration page uses our WeatherBlox Daily Observations layout. Learn more.

Left ArrowRight Arrow

Hourly Observations for May 28, 2020

Temp ( °F °C ) Dew Point ( °F °C ) Humidity (%) Winds ( mph kmh ) Pressure ( in mb ) Visibility ( mi km ) Precip ( " mm )
12:53 am 00:53 Clear 77 25 44 6.7 31 31 ESE 13 20 29.75 1008 10 16 0.00 0.00
1:53 am 01:53 Clear 74 23.3 45 7.2 36 36 ESE 9 15 29.76 1008 10 16 0.00 0.00
2:53 am 02:53 Clear 69 20.6 47 8.3 45 45 E 6 9 29.79 1009 10 16 0.00 0.00
3:53 am 03:53 Clear 68 20 51 10.6 55 55 ENE 5 7 29.79 1009 10 16 0.00 0.00
4:53 am 04:53 Clear 67 19.4 52 11.1 59 59 NE 5 7 29.80 1009 10 16 0.00 0.00
5:53 am 05:53 Clear 67 19.4 53 11.7 61 61 E 5 7 29.80 1009 10 16 0.00 0.00
6:53 am 06:53 Sunny 67 19.4 54 12.2 63 63 ENE 7 11 29.83 1010 10 16 0.00 0.00
7:53 am 07:53 Sunny 71 21.7 58 14.4 63 63 E 9 15 29.85 1011 10 16 0.00 0.00
8:53 am 08:53 Sunny 74 23.3 61 16.1 64 64 ESE 12 19 29.86 1011 10 16 0.00 0.00
9:53 am 09:53 Sunny 76 24.4 63 17.2 64 64 E 9 15 29.88 1012 10 16 0.00 0.00
10:53 am 10:53 Sunny 80 26.7 62 16.7 54 54 ENE 5 7 29.89 1012 10 16 0.00 0.00
11:53 am 11:53 Sunny 83 28.3 61 16.1 48 48 NE 10 17 29.91 1013 10 16 0.00 0.00
12:53 pm 12:53 Mostly Sunny 86 30 56 13.3 36 36 E 12 19 29.91 1013 10 16 0.00 0.00
1:53 pm 13:53 Sunny 90 32.2 51 10.6 26 26 E 17 28 29.90 1013 10 16 0.00 0.00
2:53 pm 14:53 Mostly Sunny 90 32.2 47 8.3 23 23 ENE 15 24 29.89 1012 10 16 0.00 0.00
3:53 pm 15:53 Sunny 92 33.3 44 6.7 19 19 NE 17 28 29.88 1012 10 16 0.00 0.00
4:53 pm 16:53 Sunny 92 33.3 40 4.4 16 16 ENE 22 35 29.88 1012 10 16 0.00 0.00
5:53 pm 17:53 Sunny 91 32.8 42 5.6 18 18 ENE 14 22 29.90 1012 10 16 0.00 0.00
6:53 pm 18:53 Sunny 91 32.8 43 6.1 19 19 NE 13 20 29.89 1012 10 16 0.00 0.00
7:53 pm 19:53 Sunny 87 30.6 44 6.7 22 22 NE 14 22 29.91 1013 10 16 0.00 0.00
8:53 pm 20:53 Clear 83 28.3 44 6.7 25 25 E 9 15 29.95 1014 10 16 0.00 0.00
9:53 pm 21:53 Clear 77 25 44 6.7 31 31 E 7 11 29.98 1015 10 16 0.00 0.00
10:53 pm 22:53 Clear 77 25 44 6.7 31 31 E 10 17 30.01 1016 10 16 0.00 0.00
11:53 pm 23:53 Clear 75 23.9 44 6.7 33 33 E 12 19 30.03 1017 10 16 0.00 0.00

Powered by AerisWeather